Regional Weather Roundup
Issued by NWS Newport/Morehead, NC

Current Version | Previous Version | Graphics & Text | Print | Product List | Glossary Off
Versions: 1 2 3 4 5 6 7 8 9 10 11 12 13 14 15 16 17 18 19 20 21 22 23 24 25 26 27 28 29 30 31 32 33 34 35 36 37 38 39 40 41 42 43 44 45 46 47 48 49 50
000 ASUS42 KMHX 020813 RWRMHX WEATHER ROUNDUP FOR EASTERN NORTH CAROLINA NATIONAL WEATHER SERVICE NEWPORT/MOREHEAD CITY NC 400 AM EDT TUE JUN 02 2015 NOTE: "FAIR" INDICATES FEW OR NO CLOUDS BELOW 12,000 FEET WITH NO SIGNIFICANT WEATHER AND/OR OBSTRUCTIONS TO VISIBILITY NCZ015>017-031-032-045>047-102-103-020900- NORTH COAST CITY SKY/WX TMP DP RH WIND PRES REMARKS EDENTON MOCLDY 73 69 86 S8 30.02S ELIZABETH CITY PTCLDY 73 69 87 S5 30.02S KITTY HAWK MOSUNNY 74 69 84 SW6 30.01F MANTEO CLEAR 74 69 84 SW12 30.03F $$ NCZ045>047-081-094-103-104-020900- CENTRAL COAST CITY SKY/WX TMP DP RH WIND PRES REMARKS FRISCO CLEAR 74 68 81 W7 30.04S SWANQUARTER N/A 75 N/A N/A S8 30.00S $$ NCZ095-097-098-100-101-020900- SOUTHERN COAST CITY SKY/WX TMP DP RH WIND PRES REMARKS BEAUFORT PTCLDY 75 70 84 S8 30.03S CEDAR ISLAND N/A 72 N/A N/A S3 30.06S JACKSONVILLE PTCLDY 71 68 90 S3 30.01F PINEY ISLAND MOSUNNY N/A N/A N/A S5 30.03S WILMINGTON PTCLDY 72 69 90 CALM 30.02S $$ NCZ011>013-027>030-043-044-078>080-089-090>093-098-020900- COASTAL PLAIN CITY SKY/WX TMP DP RH WIND PRES REMARKS AHOSKIE PTCLDY 69 66 90 CALM 30.00F CLINTON PTCLDY 70 70 100 CALM 30.01F ELIZABETHTOWN CLOUDY 71 70 96 CALM 30.01S GOLDSBORO MOCLDY 72 69 92 CALM 29.99S GREENVILLE PTCLDY 72 70 94 S3 30.03S HAVELOCK MOCLDY 72 68 87 SW5 30.03F KENANSVILLE CLEAR 68 66 94 CALM 30.03S KINSTON PTCLDY 71 69 93 S5 30.02S NEW BERN PTCLDY 69 67 93 CALM 30.03F RICHLANDS PTCLDY 68 63 83 CALM 30.02F ROCKY MOUNT MOCLDY 69 68 96 CALM 30.00F FOG WASHINGTON MOCLDY 71 68 89 S3 30.02S WHITEVILLE PTCLDY 71 69 93 S3 30.01S $$ AMZ130-135-150-152-154-156-158-170-250-252-270-ANZ085-086-088-633-658-670-020900- MARINE OBSERVATIONS STATION/POSITION TIME TEMP WIND PRES WAVE SWELL AIR SEA DIR/SP/G HT/PER HT/PER (UTC) (F) (DEG/KT/KT) (MB) (FT/S) (FT/S) CHESAPEAKE LIGHT 0700 70 80/ 10/ 10 1017.3 64 E VA BEACH 0750 73 72 190/ 4/ 4 1016.6 3/ 8 3/ 8 DUCK 0700 75 55 200/ 10/ 14 1015.6 2 E DUCK 0711 60 N/A 2/ 8 OREGON INLET 0700 77 77 200/ 11/ 13 1017.0 13E OREGON INLT 0800 76 N/A 3/ 9 HATTERAS CG 0700 75 80 230/ 5/ 8 1016.8 DIAMOND BUOY 0750 78 81 210/ 12/ 12 1017.2 3/ 9 3/ 9 CAPE LOOKOUT 0800 76 190/ 8/ 9 1016.6 BEAUFORT LAB 0700 77 78 210/ 7/ 10 1016.1 30 SE NEW RVR IN 0708 77 77 200/ 8/ 12 1017.4 27 SE WRIGHTSVLE 0700 77 230/ 6/ 8 N/A 5 SE WRIGHTSVLE NOT AVBL 225 S CAPE HAT 0750 76 77 240/ 4/ 6 1017.7 4/ 8 3/ 8 41 SE CHARLESTON 0750 79 80 240/ 6/ 8 1015.8 3/ 8 2/ 8 $$

USA.gov is the U.S. government's official web portal to all federal, state and local government web resources and services.